Powrót do katalogu

COSMOS 1285 DEB

LostHEO
NORAD 33522·DEBRIS·🇷🇺 Russia

Wystrzelony Aug 4, 1981 z Plesetsk Cosmodrome

Loading…

Następne Przeloty (najbliższe 24 godziny)

TLE

NieaktualneSource: Space-Track

Epoka: Dec 16, 2011, 05:24 UTC

1 33522U 81071X   11350.22500524  .00000741  00000-0  00000+0 0  9993
2 33522  67.7489  33.4910 6031592 132.8800 338.6183  1.98054330 45527

Śledź COSMOS 1285 DEB w czasie rzeczywistym z AllMySat

Download on the App Store